Regional Weather Roundup
Issued by NWS

Home | Current Version | Previous Version | Text Only | Print | Product List | Glossary On
Versions: 1 2 3 4 5 6 7 8 9 10 11 12 13 14 15 16 17 18 19 20 21 22 23 24 25 26 27
000
ASUS44 KLIX 301813
RWRLA
LOUISIANA WEATHER ROUNDUP
NATIONAL WEATHER SERVICE NEW ORLEANS LA
100 PM CDT SUN APR 30 2017

NOTE: "FAIR" INDICATES FEW OR NO CLOUDS BELOW 12,000 FEET WITH NO
      SIGNIFICANT WEATHER AND/OR OBSTRUCTIONS TO VISIBILITY.
      SKY/WX - SKY CONDITION AND SIGNIFICANT WEATHER.
      TMP - AIR TEMPERATURE.    DP   - DEWPOINT TEMPERATURE.
      RH  - RELATIVE HUMIDITY.  PRES - PRESSURE.
      HX  - HEAT INDEX.         WCI  - WIND CHILL INDEX.

*  THESE STATIONS ARE NOT NWS OR FAA STATIONS AND ARE NOT UNDER
   NWS QUALITY CONTROL.

LAZ040-048-061>063-065-066-069-301900-
SOUTHEAST LOUISIANA

CITY           SKY/WX    TMP DP  RH WIND       PRES   REMARKS
N.O. INTL ARPT LGT RAIN  72  69  90 SE15      29.79F
6HR MIN TEMP:  69; 6HR MAX TEMP:  80; 6HR PCP:  2.88;

N.O. LAKEFRONT TSTM      71  69  93 S12G21    29.89F FOG
6HR MIN TEMP:  70; 6HR MAX TEMP:  81; 6HR PCP:  2.45;

N.O. DOWNTOWN* TSTM      71  68  90 S7          N/A
6HR MIN TEMP:  70; 6HR MAX TEMP:  80;

RESERVE*       NOT AVBL
SLIDELL        TSTM      70  68  93 S12G26    29.90F FOG
6HR MIN TEMP:  69; 6HR MAX TEMP:  80; 6HR PCP:  1.31;

BATON ROUGE    CLOUDY    70  68  93 SE6       29.84S
6HR MIN TEMP:  68; 6HR MAX TEMP:  80; 6HR PCP:  2.83;

BOOTHVILLE     CLOUDY    80  76  87 SE18G28   29.93R
6HR MIN TEMP:  78; 6HR MAX TEMP:  81;

BELLE CHASSE   TSTM      70  70 100 S17G29    29.92F VSB 1
                                      6HR PCP: TRACE;

BOGALUSA*      NOT AVBL
GALLIANO*      TSTM      70  67  90 SE9       29.92R VSB 3/4
6HR MIN TEMP:  70; 6HR MAX TEMP:  81; 6HR PCP:  1.16;

NEW ROADS*     FAIR      70  62  76 CALM      29.84S
6HR MIN TEMP:  66; 6HR MAX TEMP:  79; 6HR PCP:  1.85;

GONZALES*      CLOUDY    70  69  98 CALM      29.81F
6HR MIN TEMP:  69; 6HR MAX TEMP:  80; 6HR PCP:  1.33;

HAMMOND*       CLOUDY    70  68  94 SE14      29.85F
HOUMA*         MOSUNNY   72  70  94 S10         N/A
PORT FOURCHON* FOG       73  72  94 NW13G28   29.90R VSB 1/4

$$

LAZ041-044-053-054-301900-
SOUTHWEST LOUISIANA

CITY           SKY/WX    TMP DP  RH WIND       PRES   REMARKS
LAKE CHARLES   MOSUNNY   69  54  58 W13       29.89S
6HR MIN TEMP:  61; 6HR MAX TEMP:  69; 6HR PCP: TRACE;

LAFAYETTE      CLOUDY    77  59  53 CALM      29.82F
6HR MIN TEMP:  66; 6HR MAX TEMP:  77; 6HR PCP:  0.67;

PATTERSON      CLOUDY    69  67  93 E6        29.85R
6HR MIN TEMP:  66; 6HR MAX TEMP:  79; 6HR PCP:  0.56;

SALT POINT       N/A     71  68  90 VRB3      29.83R
6HR MIN TEMP:  66; 6HR MAX TEMP:  79;

NEW IBERIA     CLOUDY    73  60  63 NW5       29.83F
6HR MIN TEMP:  63; 6HR MAX TEMP:  78; 6HR PCP:  1.48;

CHENAULT AIRPK PTSUNNY   68  54  60 NW12G20   29.90

$$

LAZ027-028-301900-
CENTRAL LOUISIANA

CITY           SKY/WX    TMP DP  RH WIND       PRES   REMARKS
FORT POLK      CLOUDY    63  56  77 W14       29.88R
6HR MIN TEMP:  60; 6HR MAX TEMP:  66;

ALEXANDRIA INT CLOUDY    65  59  81 W13       29.83R
6HR MIN TEMP:  62; 6HR MAX TEMP:  65; 6HR PCP:  0.06;

ALEXANDRIA     CLOUDY    67  61  81 W12       29.82S
6HR MIN TEMP:  61; 6HR MAX TEMP:  67; 6HR PCP: TRACE;


$$

LAZ001-002-301900-
NORTHWEST LOUISIANA

CITY           SKY/WX    TMP DP  RH WIND       PRES   REMARKS
SHREVEPORT     CLOUDY    59  50  72 SW12      29.84F
6HR MIN TEMP:  57; 6HR MAX TEMP:  62; 6HR PCP: TRACE;

BARKSDALE AFB  CLOUDY    58  49  71 SW10      29.84F
6HR MIN TEMP:  58; 6HR MAX TEMP:  62;

DTN SHREVEPORT CLOUDY    58  49  72 W13       29.84F
6HR MIN TEMP:  58; 6HR MAX TEMP:  62; 6HR PCP: TRACE;


$$

LAZ014-016-301900-
NORTHEAST LOUISIANA

CITY           SKY/WX    TMP DP  RH WIND       PRES   REMARKS
MONROE         CLOUDY    65  59  81 SW12      29.80R
6HR MIN TEMP:  64; 6HR MAX TEMP:  67; 6HR PCP: TRACE;

TALLULAH       CLOUDY    69  66  90 S10       29.81R
6HR MIN TEMP:  68; 6HR MAX TEMP:  73; 6HR PCP:  1.58;


$$





USA.gov is the U.S. government's official web portal to all federal, state and local government web resources and services.